VIV2061 MMQT-MMUN

Flight info

Callsign VIV2061
Flight time 2h 2m
Altitude 37000
Route ROGDI UJ14 TMN DCT RAULS UT23 LIDAM DCT PERGO DCT XUDUN XUDUN1A
Aircraft A320/M-SDE3FGHIRWY/LB1

Departure

Time 2026-05-08 10:05
Airport Querétaro Intercontinental Airport (MMQT)

Arrival

Time 2026-05-08 12:07
Airport Cancún International Airport (MMUN)
Time Latitude Longitude Altitude Speed Heading
2026-05-08 09:47 20.62200 -100.18751 6297 ft 0 kts 41°
2026-05-08 09:52 20.62190 -100.18761 6297 ft 4 kts 76°
2026-05-08 09:52 20.62190 -100.18769 6297 ft 4 kts 176°
2026-05-08 09:52 20.62205 -100.18768 6297 ft 1 kts 191°
2026-05-08 09:53 20.62207 -100.18768 6297 ft 0 kts 191°
2026-05-08 09:55 20.62198 -100.18770 6297 ft 3 kts 191°
2026-05-08 09:55 20.62195 -100.18771 6297 ft 1 kts 198°
2026-05-08 09:56 20.62196 -100.18771 6297 ft 0 kts 198°
2026-05-08 09:56 20.62195 -100.18771 6297 ft 1 kts 198°
2026-05-08 09:56 20.62168 -100.18779 6297 ft 6 kts 192°
2026-05-08 09:56 20.62126 -100.18777 6296 ft 6 kts 154°
2026-05-08 09:57 20.62086 -100.18682 6296 ft 8 kts 142°
2026-05-08 09:57 20.62028 -100.18683 6296 ft 10 kts 191°
2026-05-08 09:57 20.61955 -100.18689 6294 ft 12 kts 160°
2026-05-08 09:58 20.61916 -100.18612 6294 ft 13 kts 102°
2026-05-08 09:58 20.61898 -100.18515 6294 ft 14 kts 102°
2026-05-08 09:58 20.61877 -100.18412 6294 ft 15 kts 102°
2026-05-08 09:58 20.61858 -100.18304 6294 ft 15 kts 100°
2026-05-08 09:59 20.61839 -100.18192 6295 ft 16 kts 102°
2026-05-08 09:59 20.61816 -100.18075 6295 ft 16 kts 102°
2026-05-08 09:59 20.61794 -100.17954 6295 ft 17 kts 101°
2026-05-08 09:59 20.61770 -100.17828 6296 ft 18 kts 102°
2026-05-08 10:00 20.61744 -100.17699 6296 ft 18 kts 102°
2026-05-08 10:00 20.61721 -100.17565 6297 ft 18 kts 101°
2026-05-08 10:00 20.61695 -100.17429 6297 ft 19 kts 102°
2026-05-08 10:00 20.61671 -100.17290 6297 ft 19 kts 100°
2026-05-08 10:01 20.61646 -100.17147 6298 ft 20 kts 101°
2026-05-08 10:01 20.61618 -100.17002 6298 ft 20 kts 101°
2026-05-08 10:01 20.61579 -100.16913 6299 ft 12 kts 153°
2026-05-08 10:01 20.61496 -100.16910 6300 ft 12 kts 191°
2026-05-08 10:02 20.61442 -100.16955 6300 ft 11 kts 249°
2026-05-08 10:02 20.61450 -100.17006 6300 ft 0 kts 285°
2026-05-08 10:04 20.61451 -100.17011 6300 ft 4 kts 285°
2026-05-08 10:04 20.61504 -100.17293 6299 ft 79 kts 281°
2026-05-08 10:04 20.61652 -100.18111 6288 ft 142 kts 281°
2026-05-08 10:05 20.61860 -100.19324 6385 ft 184 kts 280°
2026-05-08 10:05 20.62100 -100.20737 6887 ft 198 kts 281°
2026-05-08 10:05 20.62365 -100.22169 7740 ft 196 kts 281°
2026-05-08 10:05 20.62851 -100.23562 8033 ft 213 kts 311°
2026-05-08 10:06 20.64162 -100.24371 8260 ft 233 kts 353°
2026-05-08 10:06 20.65803 -100.24062 8526 ft 255 kts 31°
2026-05-08 10:06 20.67210 -100.22788 8830 ft 276 kts 47°
2026-05-08 10:06 20.68462 -100.21227 9425 ft 284 kts 52°
2026-05-08 10:07 20.69682 -100.19544 10128 ft 289 kts 53°
2026-05-08 10:07 20.70938 -100.17782 10446 ft 309 kts 52°
2026-05-08 10:07 20.72306 -100.15896 10596 ft 332 kts 52°
2026-05-08 10:07 20.73778 -100.13915 10954 ft 346 kts 51°
2026-05-08 10:08 20.75307 -100.11909 11544 ft 351 kts 50°
2026-05-08 10:08 20.76870 -100.09891 12169 ft 354 kts 50°
2026-05-08 10:08 20.78452 -100.07863 12767 ft 357 kts 50°
2026-05-08 10:08 20.80031 -100.05842 13390 ft 360 kts 50°
2026-05-08 10:09 20.81643 -100.03774 14013 ft 363 kts 50°
2026-05-08 10:09 20.83262 -100.01690 14608 ft 366 kts 50°
2026-05-08 10:09 20.84895 -99.99587 15168 ft 369 kts 50°
2026-05-08 10:09 20.86543 -99.97463 15708 ft 372 kts 50°
2026-05-08 10:10 20.88198 -99.95327 16263 ft 374 kts 50°
2026-05-08 10:10 20.89864 -99.93175 16800 ft 377 kts 50°
2026-05-08 10:10 20.91542 -99.91009 17326 ft 379 kts 50°
2026-05-08 10:10 20.93289 -99.88936 17828 ft 382 kts 43°
2026-05-08 10:11 20.95268 -99.87017 18321 ft 385 kts 42°
2026-05-08 10:11 20.97265 -99.85090 18842 ft 388 kts 42°
2026-05-08 10:11 20.99278 -99.83147 19350 ft 391 kts 42°
2026-05-08 10:11 21.01302 -99.81188 19832 ft 394 kts 42°
2026-05-08 10:12 21.03339 -99.79211 20343 ft 396 kts 42°
2026-05-08 10:12 21.05386 -99.77223 20831 ft 399 kts 42°
2026-05-08 10:12 21.07446 -99.75223 21256 ft 402 kts 42°
2026-05-08 10:12 21.09498 -99.73232 21657 ft 405 kts 42°
2026-05-08 10:13 21.11594 -99.71199 22040 ft 408 kts 42°
2026-05-08 10:13 21.13713 -99.69144 22357 ft 414 kts 42°
2026-05-08 10:13 21.15854 -99.67066 22723 ft 417 kts 42°
2026-05-08 10:13 21.18012 -99.64969 23116 ft 420 kts 42°
2026-05-08 10:14 21.20176 -99.62865 23578 ft 420 kts 42°
2026-05-08 10:14 21.22344 -99.60759 23995 ft 422 kts 42°
2026-05-08 10:14 21.24520 -99.58644 24419 ft 422 kts 42°
2026-05-08 10:14 21.26695 -99.56526 24823 ft 424 kts 42°
2026-05-08 10:15 21.28856 -99.54424 25151 ft 426 kts 42°
2026-05-08 10:15 21.31055 -99.52285 25535 ft 427 kts 42°
2026-05-08 10:15 21.33254 -99.50146 25945 ft 427 kts 42°
2026-05-08 10:15 21.35460 -99.47994 26239 ft 431 kts 42°
2026-05-08 10:16 21.37683 -99.45824 26541 ft 434 kts 42°
2026-05-08 10:16 21.39918 -99.43640 26894 ft 435 kts 42°
2026-05-08 10:16 21.42158 -99.41451 27249 ft 436 kts 42°
2026-05-08 10:16 21.44401 -99.39257 27633 ft 436 kts 42°
2026-05-08 10:17 21.46615 -99.37088 27958 ft 438 kts 42°
2026-05-08 10:17 21.48876 -99.34874 28238 ft 441 kts 42°
2026-05-08 10:17 21.51142 -99.32654 28601 ft 441 kts 42°
2026-05-08 10:17 21.53405 -99.30436 29016 ft 440 kts 42°
2026-05-08 10:18 21.55659 -99.28230 29513 ft 437 kts 42°
2026-05-08 10:18 21.57897 -99.26036 29944 ft 435 kts 42°
2026-05-08 10:18 21.60135 -99.23843 30319 ft 435 kts 42°
2026-05-08 10:18 21.62373 -99.21650 30707 ft 435 kts 42°
2026-05-08 10:19 21.64599 -99.19465 31106 ft 434 kts 42°
2026-05-08 10:19 21.66798 -99.17305 31457 ft 434 kts 42°
2026-05-08 10:19 21.69025 -99.15117 31831 ft 433 kts 42°
2026-05-08 10:20 21.73464 -99.10760 32638 ft 430 kts 42°
2026-05-08 10:20 21.75668 -99.08594 33044 ft 429 kts 42°
2026-05-08 10:20 21.77866 -99.06430 33387 ft 428 kts 42°
2026-05-08 10:20 21.80059 -99.04269 33798 ft 426 kts 42°
2026-05-08 10:21 21.82240 -99.02118 34175 ft 425 kts 42°
2026-05-08 10:21 21.84385 -99.00001 34512 ft 424 kts 42°
2026-05-08 10:21 21.86557 -98.97860 34831 ft 423 kts 42°
2026-05-08 10:21 21.88728 -98.95722 35137 ft 423 kts 42°
2026-05-08 10:22 21.90897 -98.93586 35430 ft 422 kts 42°
2026-05-08 10:22 21.93059 -98.91454 35703 ft 422 kts 42°
2026-05-08 10:22 21.95223 -98.89318 35963 ft 422 kts 42°
2026-05-08 10:22 21.97385 -98.87183 36241 ft 421 kts 42°
2026-05-08 10:23 21.99524 -98.85037 36500 ft 420 kts 46°
2026-05-08 10:23 22.01360 -98.82644 36731 ft 420 kts 56°
2026-05-08 10:23 22.02796 -98.79912 36937 ft 420 kts 66°
2026-05-08 10:24 22.04245 -98.73795 37010 ft 428 kts 86°
2026-05-08 10:24 22.04600 -98.67355 37009 ft 432 kts 86°
2026-05-08 10:25 22.04974 -98.60888 37009 ft 432 kts 86°
2026-05-08 10:25 22.05345 -98.54418 37009 ft 433 kts 86°
2026-05-08 10:26 22.05699 -98.47989 37010 ft 433 kts 86°
2026-05-08 10:26 22.06056 -98.41513 37013 ft 433 kts 86°
2026-05-08 10:27 22.06416 -98.35036 37016 ft 433 kts 86°
2026-05-08 10:27 22.06766 -98.28559 37018 ft 433 kts 86°
2026-05-08 10:28 22.07111 -98.22118 37019 ft 433 kts 86°
2026-05-08 10:28 22.07457 -98.15637 37020 ft 433 kts 86°
2026-05-08 10:29 22.07800 -98.09157 37021 ft 433 kts 86°
2026-05-08 10:29 22.08085 -98.03768 37022 ft 433 kts 86°
2026-05-08 10:30 22.08475 -97.96231 37022 ft 433 kts 86°
2026-05-08 10:30 22.08779 -97.90397 37022 ft 433 kts 86°
2026-05-08 10:31 22.09057 -97.85008 37023 ft 433 kts 87°
2026-05-08 10:31 22.09384 -97.78519 37022 ft 433 kts 87°
2026-05-08 10:32 22.09764 -97.70981 37023 ft 433 kts 87°
2026-05-08 10:32 22.10041 -97.65546 37024 ft 433 kts 87°
2026-05-08 10:33 22.10365 -97.59103 37024 ft 433 kts 87°
2026-05-08 10:33 22.10694 -97.52617 37023 ft 433 kts 87°
2026-05-08 10:34 22.11012 -97.46133 37023 ft 433 kts 87°
2026-05-08 10:34 22.11327 -97.39646 37022 ft 433 kts 87°
2026-05-08 10:35 22.11643 -97.33207 37021 ft 433 kts 87°
2026-05-08 10:35 22.11952 -97.26724 37020 ft 433 kts 87°
2026-05-08 10:36 22.12256 -97.20243 37020 ft 433 kts 87°
2026-05-08 10:36 22.12561 -97.13758 37021 ft 433 kts 87°
2026-05-08 10:37 22.12865 -97.07316 37022 ft 433 kts 87°
2026-05-08 10:37 22.13167 -97.00823 37023 ft 433 kts 87°
2026-05-08 10:38 22.13466 -96.94331 37024 ft 433 kts 87°
2026-05-08 10:38 22.13761 -96.87837 37025 ft 434 kts 87°
2026-05-08 10:39 22.14057 -96.81387 37026 ft 434 kts 87°
2026-05-08 10:39 22.14349 -96.74891 37026 ft 433 kts 87°
2026-05-08 10:40 22.14642 -96.68395 37029 ft 433 kts 87°
2026-05-08 10:40 22.14926 -96.61902 37026 ft 434 kts 87°
2026-05-08 10:41 22.15205 -96.55403 37027 ft 434 kts 88°
2026-05-08 10:41 22.14767 -96.48969 37027 ft 433 kts 97°
2026-05-08 10:42 22.14061 -96.42513 37026 ft 433 kts 97°
2026-05-08 10:42 22.13356 -96.36057 37025 ft 433 kts 97°
2026-05-08 10:43 22.12651 -96.29601 37025 ft 433 kts 97°
2026-05-08 10:43 22.11942 -96.23188 37026 ft 434 kts 97°
2026-05-08 10:44 22.11230 -96.16733 37025 ft 433 kts 97°
2026-05-08 10:44 22.10522 -96.10281 37025 ft 433 kts 97°
2026-05-08 10:45 22.09807 -96.03825 37026 ft 434 kts 97°
2026-05-08 10:45 22.09096 -95.97412 37029 ft 434 kts 97°
2026-05-08 10:46 22.08375 -95.90958 37026 ft 433 kts 97°
2026-05-08 10:46 22.07651 -95.84508 37024 ft 433 kts 97°
2026-05-08 10:47 22.06926 -95.78067 37022 ft 433 kts 97°
2026-05-08 10:47 22.06203 -95.71670 37021 ft 433 kts 97°
2026-05-08 10:48 22.05465 -95.65227 37021 ft 433 kts 97°
2026-05-08 10:48 22.04736 -95.58783 37022 ft 433 kts 97°
2026-05-08 10:49 22.04008 -95.52334 37023 ft 433 kts 97°
2026-05-08 10:49 22.03269 -95.45888 37023 ft 433 kts 97°
2026-05-08 10:50 22.02531 -95.39487 37024 ft 433 kts 97°
2026-05-08 10:50 22.01788 -95.33040 37026 ft 434 kts 97°
2026-05-08 10:51 22.01043 -95.26587 37027 ft 434 kts 97°
2026-05-08 10:51 22.00296 -95.20133 37028 ft 434 kts 97°
2026-05-08 10:52 21.99550 -95.13726 37028 ft 434 kts 97°
2026-05-08 10:52 21.98800 -95.07280 37026 ft 433 kts 97°
2026-05-08 10:53 21.98039 -95.00842 37028 ft 433 kts 97°
2026-05-08 10:53 21.97277 -94.94402 37024 ft 433 kts 97°
2026-05-08 10:54 21.96526 -94.88004 37024 ft 433 kts 97°
2026-05-08 10:54 21.95769 -94.81563 37025 ft 433 kts 97°
2026-05-08 10:55 21.95013 -94.75119 37025 ft 433 kts 97°
2026-05-08 10:55 21.94256 -94.68678 37025 ft 434 kts 97°
2026-05-08 10:56 21.93488 -94.62283 37025 ft 434 kts 97°
2026-05-08 10:56 21.92706 -94.55843 37025 ft 434 kts 97°
2026-05-08 10:57 21.91934 -94.49405 37026 ft 434 kts 97°
2026-05-08 10:57 21.90773 -94.39746 37025 ft 433 kts 97°
2026-05-08 10:58 21.90001 -94.33358 37024 ft 433 kts 97°
2026-05-08 10:58 21.89221 -94.26923 37023 ft 433 kts 97°
2026-05-08 10:59 21.88442 -94.20491 37024 ft 433 kts 97°
2026-05-08 10:59 21.87657 -94.14055 37025 ft 433 kts 97°
2026-05-08 11:00 21.86860 -94.07622 37024 ft 433 kts 97°
2026-05-08 11:00 21.86071 -94.01238 37024 ft 433 kts 97°
2026-05-08 11:01 21.85276 -93.94809 37023 ft 433 kts 97°
2026-05-08 11:01 21.84478 -93.88384 37023 ft 433 kts 97°
2026-05-08 11:02 21.83285 -93.78744 37022 ft 433 kts 97°
2026-05-08 11:03 21.82492 -93.72358 37023 ft 433 kts 97°
2026-05-08 11:03 21.81681 -93.65930 37024 ft 433 kts 98°
2026-05-08 11:04 21.80869 -93.59504 37024 ft 433 kts 98°
2026-05-08 11:04 21.80059 -93.53082 37022 ft 433 kts 97°
2026-05-08 11:05 21.79259 -93.46709 37020 ft 433 kts 97°
2026-05-08 11:05 21.78449 -93.40288 37020 ft 433 kts 98°
2026-05-08 11:06 21.77633 -93.33872 37021 ft 433 kts 98°
2026-05-08 11:06 21.76814 -93.27453 37022 ft 433 kts 98°
2026-05-08 11:07 21.75992 -93.21029 37021 ft 433 kts 98°
2026-05-08 11:07 21.75173 -93.14660 37020 ft 433 kts 98°
2026-05-08 11:08 21.74342 -93.08250 37018 ft 433 kts 98°
2026-05-08 11:08 21.73508 -93.01840 37017 ft 433 kts 98°
2026-05-08 11:09 21.72684 -92.95471 37018 ft 433 kts 98°
2026-05-08 11:09 21.71853 -92.89059 37019 ft 433 kts 98°
2026-05-08 11:10 21.71017 -92.82641 37022 ft 434 kts 98°
2026-05-08 11:10 21.70173 -92.76218 37023 ft 434 kts 98°
2026-05-08 11:11 21.69330 -92.69803 37024 ft 433 kts 98°
2026-05-08 11:11 21.68490 -92.63428 37023 ft 433 kts 98°
2026-05-08 11:12 21.67646 -92.57015 37022 ft 433 kts 98°
2026-05-08 11:12 21.66801 -92.50609 37020 ft 433 kts 98°
2026-05-08 11:13 21.65948 -92.44202 37019 ft 433 kts 98°
2026-05-08 11:13 21.65086 -92.37797 37018 ft 433 kts 98°
2026-05-08 11:14 21.64236 -92.31436 37018 ft 433 kts 98°
2026-05-08 11:14 21.63388 -92.25032 37018 ft 433 kts 98°
2026-05-08 11:15 21.62525 -92.18625 37019 ft 433 kts 98°
2026-05-08 11:15 21.61659 -92.12219 37020 ft 433 kts 98°
2026-05-08 11:16 21.60797 -92.05854 37021 ft 433 kts 98°
2026-05-08 11:16 21.59929 -91.99450 37020 ft 433 kts 98°
2026-05-08 11:17 21.59060 -91.93045 37019 ft 433 kts 98°
2026-05-08 11:17 21.58187 -91.86644 37019 ft 433 kts 98°
2026-05-08 11:18 21.57319 -91.80286 37019 ft 433 kts 98°
2026-05-08 11:18 21.56438 -91.73884 37020 ft 433 kts 98°
2026-05-08 11:19 21.55557 -91.67481 37020 ft 433 kts 98°
2026-05-08 11:19 21.54681 -91.61080 37019 ft 433 kts 98°
2026-05-08 11:20 21.53795 -91.54726 37019 ft 433 kts 98°
2026-05-08 11:20 21.52902 -91.48326 37021 ft 433 kts 98°
2026-05-08 11:21 21.52007 -91.41920 37023 ft 434 kts 98°
2026-05-08 11:21 21.51115 -91.35512 37025 ft 434 kts 98°
2026-05-08 11:22 21.50226 -91.29099 37027 ft 434 kts 98°
2026-05-08 11:22 21.49329 -91.22733 37027 ft 434 kts 98°
2026-05-08 11:23 21.48423 -91.16325 37027 ft 434 kts 98°
2026-05-08 11:23 21.47518 -91.09920 37027 ft 434 kts 98°
2026-05-08 11:24 21.46612 -91.03516 37026 ft 434 kts 98°
2026-05-08 11:24 21.45709 -90.97156 37025 ft 434 kts 98°
2026-05-08 11:25 21.44799 -90.90758 37028 ft 434 kts 98°
2026-05-08 11:25 21.43893 -90.84357 37027 ft 434 kts 98°
2026-05-08 11:26 21.42976 -90.77958 37024 ft 434 kts 98°
2026-05-08 11:26 21.42061 -90.71607 37024 ft 434 kts 99°
2026-05-08 11:27 21.41139 -90.65210 37024 ft 434 kts 99°
2026-05-08 11:27 21.40216 -90.58810 37025 ft 434 kts 99°
2026-05-08 11:28 21.39295 -90.52413 37026 ft 434 kts 98°
2026-05-08 11:28 21.38370 -90.46013 37026 ft 434 kts 99°
2026-05-08 11:29 21.37438 -90.39662 37025 ft 434 kts 99°
2026-05-08 11:29 21.36500 -90.33269 37024 ft 434 kts 99°
2026-05-08 11:30 21.35563 -90.26878 37024 ft 434 kts 99°
2026-05-08 11:30 21.34626 -90.20484 37024 ft 434 kts 99°
2026-05-08 11:31 21.33697 -90.14132 37025 ft 434 kts 99°
2026-05-08 11:31 21.32756 -90.07737 37026 ft 434 kts 99°
2026-05-08 11:32 21.31810 -90.01344 37026 ft 434 kts 99°
2026-05-08 11:32 21.30860 -89.94948 37032 ft 434 kts 99°
2026-05-08 11:33 21.29917 -89.88597 37027 ft 434 kts 99°
2026-05-08 11:33 21.28959 -89.82203 37028 ft 434 kts 99°
2026-05-08 11:34 21.28000 -89.75810 37027 ft 434 kts 99°
2026-05-08 11:34 21.27493 -89.69381 37026 ft 434 kts 86°
2026-05-08 11:35 21.28004 -89.62941 37024 ft 434 kts 85°
2026-05-08 11:35 21.28502 -89.56539 37024 ft 434 kts 85°
2026-05-08 11:36 21.28993 -89.50089 37026 ft 434 kts 85°
2026-05-08 11:36 21.29492 -89.43636 37026 ft 434 kts 85°
2026-05-08 11:37 21.29986 -89.37184 37026 ft 434 kts 85°
2026-05-08 11:37 21.30475 -89.30776 37026 ft 434 kts 85°
2026-05-08 11:38 21.30960 -89.24323 37026 ft 434 kts 85°
2026-05-08 11:38 21.31453 -89.17871 36767 ft 434 kts 85°
2026-05-08 11:38 21.31697 -89.14650 36517 ft 433 kts 85°
2026-05-08 11:39 21.31939 -89.11429 36268 ft 433 kts 85°
2026-05-08 11:39 21.32181 -89.08212 35937 ft 433 kts 85°
2026-05-08 11:39 21.32424 -89.04978 35179 ft 438 kts 85°
2026-05-08 11:39 21.32663 -89.01756 34415 ft 441 kts 85°
2026-05-08 11:40 21.32903 -88.98458 33591 ft 446 kts 85°
2026-05-08 11:40 21.33144 -88.95125 32679 ft 451 kts 85°
2026-05-08 11:40 21.33390 -88.91749 31737 ft 456 kts 85°
2026-05-08 11:40 21.33643 -88.88344 30843 ft 459 kts 85°
2026-05-08 11:41 21.33900 -88.84926 30116 ft 458 kts 85°
2026-05-08 11:41 21.34152 -88.81541 29533 ft 453 kts 85°
2026-05-08 11:41 21.34399 -88.78189 28913 ft 449 kts 85°
2026-05-08 11:41 21.34638 -88.74914 28305 ft 444 kts 85°
2026-05-08 11:42 21.34878 -88.71627 27694 ft 440 kts 85°
2026-05-08 11:42 21.35114 -88.68370 27088 ft 435 kts 85°
2026-05-08 11:42 21.35343 -88.65152 26489 ft 431 kts 85°
2026-05-08 11:42 21.35569 -88.61966 25897 ft 426 kts 85°
2026-05-08 11:43 21.35792 -88.58812 25308 ft 422 kts 85°
2026-05-08 11:43 21.36017 -88.55693 24729 ft 417 kts 85°
2026-05-08 11:43 21.36235 -88.52644 24177 ft 413 kts 85°
2026-05-08 11:43 21.36451 -88.49592 23619 ft 408 kts 85°
2026-05-08 11:44 21.36664 -88.46574 23082 ft 403 kts 85°
2026-05-08 11:44 21.36841 -88.43595 22689 ft 395 kts 90°
2026-05-08 11:44 21.36645 -88.40704 22475 ft 384 kts 99°
2026-05-08 11:44 21.36099 -88.37918 21928 ft 383 kts 103°
2026-05-08 11:45 21.35517 -88.35148 21557 ft 377 kts 103°
2026-05-08 11:45 21.34939 -88.32413 21070 ft 375 kts 103°
2026-05-08 11:45 21.34370 -88.29732 20590 ft 372 kts 103°
2026-05-08 11:45 21.33798 -88.27035 20102 ft 370 kts 103°
2026-05-08 11:46 21.33232 -88.24355 19620 ft 367 kts 103°
2026-05-08 11:46 21.32669 -88.21694 19133 ft 364 kts 103°
2026-05-08 11:46 21.32110 -88.19056 18637 ft 362 kts 103°
2026-05-08 11:46 21.31554 -88.16438 18143 ft 359 kts 103°
2026-05-08 11:47 21.31001 -88.13836 17639 ft 356 kts 103°
2026-05-08 11:47 21.30453 -88.11254 17154 ft 354 kts 103°
2026-05-08 11:47 21.29911 -88.08690 16664 ft 351 kts 103°
2026-05-08 11:47 21.29376 -88.06179 16180 ft 349 kts 103°
2026-05-08 11:48 21.28831 -88.03666 15538 ft 343 kts 103°
2026-05-08 11:48 21.28283 -88.01174 14899 ft 344 kts 103°
2026-05-08 11:48 21.27738 -87.98705 14301 ft 337 kts 103°
2026-05-08 11:48 21.27199 -87.96275 13473 ft 333 kts 103°
2026-05-08 11:49 21.26671 -87.93890 12962 ft 327 kts 103°
2026-05-08 11:49 21.26154 -87.91550 12571 ft 314 kts 103°
2026-05-08 11:49 21.25671 -87.89351 12343 ft 295 kts 103°
2026-05-08 11:49 21.25207 -87.87238 11843 ft 289 kts 103°
2026-05-08 11:50 21.24757 -87.85186 11282 ft 286 kts 103°
2026-05-08 11:50 21.24302 -87.83122 10779 ft 283 kts 103°
2026-05-08 11:50 21.23848 -87.81072 10441 ft 281 kts 103°
2026-05-08 11:50 21.23395 -87.79026 10366 ft 283 kts 103°
2026-05-08 11:51 21.22942 -87.76970 10254 ft 284 kts 103°
2026-05-08 11:51 21.22488 -87.74917 10128 ft 282 kts 103°
2026-05-08 11:51 21.22062 -87.72868 9976 ft 282 kts 98°
2026-05-08 11:51 21.21967 -87.70779 9525 ft 286 kts 89°
2026-05-08 11:52 21.22003 -87.68675 9326 ft 280 kts 89°
2026-05-08 11:52 21.22036 -87.66602 9037 ft 277 kts 89°
2026-05-08 11:52 21.22065 -87.64543 8721 ft 276 kts 89°
2026-05-08 11:52 21.22091 -87.62492 8407 ft 274 kts 89°
2026-05-08 11:53 21.22114 -87.60453 8093 ft 273 kts 89°
2026-05-08 11:53 21.22136 -87.58421 7780 ft 272 kts 89°
2026-05-08 11:53 21.22160 -87.56419 7617 ft 265 kts 89°
2026-05-08 11:53 21.22186 -87.54501 7492 ft 257 kts 89°
2026-05-08 11:54 21.22210 -87.52628 7344 ft 244 kts 89°
2026-05-08 11:54 21.22233 -87.50837 6999 ft 239 kts 89°
2026-05-08 11:54 21.22254 -87.49064 6764 ft 237 kts 89°
2026-05-08 11:54 21.22273 -87.47304 6495 ft 236 kts 89°
2026-05-08 11:55 21.22291 -87.45565 6328 ft 230 kts 89°
2026-05-08 11:55 21.22310 -87.43885 6205 ft 222 kts 89°
2026-05-08 11:55 21.22329 -87.42258 6069 ft 215 kts 89°
2026-05-08 11:55 21.22346 -87.40688 5858 ft 213 kts 89°
2026-05-08 11:56 21.22364 -87.39107 5611 ft 212 kts 89°
2026-05-08 11:56 21.22380 -87.37533 5362 ft 211 kts 89°
2026-05-08 11:56 21.22396 -87.35963 5112 ft 210 kts 89°
2026-05-08 11:56 21.22406 -87.34399 4862 ft 209 kts 91°
2026-05-08 11:57 21.22342 -87.32843 4614 ft 209 kts 94°
2026-05-08 11:57 21.22243 -87.31295 4363 ft 208 kts 94°
2026-05-08 11:57 21.22136 -87.29752 4111 ft 207 kts 94°
2026-05-08 11:57 21.22030 -87.28214 3860 ft 206 kts 94°
2026-05-08 11:58 21.21927 -87.26703 3613 ft 206 kts 94°
2026-05-08 11:58 21.21813 -87.25179 3360 ft 205 kts 99°
2026-05-08 11:58 21.21421 -87.23720 3129 ft 203 kts 112°
2026-05-08 11:59 21.20407 -87.21018 2897 ft 186 kts 111°
2026-05-08 11:59 21.19943 -87.19767 2765 ft 175 kts 111°
2026-05-08 11:59 21.19496 -87.18564 2694 ft 174 kts 111°
2026-05-08 11:59 21.19051 -87.17361 2655 ft 173 kts 111°
2026-05-08 12:00 21.18615 -87.16186 2607 ft 168 kts 111°
2026-05-08 12:00 21.18191 -87.15046 2490 ft 164 kts 111°
2026-05-08 12:00 21.17771 -87.13914 2367 ft 163 kts 111°
2026-05-08 12:00 21.17355 -87.12788 2242 ft 162 kts 111°
2026-05-08 12:01 21.16939 -87.11666 2116 ft 162 kts 111°
2026-05-08 12:01 21.16522 -87.10545 1991 ft 162 kts 111°
2026-05-08 12:01 21.16108 -87.09430 1951 ft 160 kts 111°
2026-05-08 12:01 21.15693 -87.08312 2037 ft 162 kts 111°
2026-05-08 12:02 21.15287 -87.07222 2034 ft 155 kts 111°
2026-05-08 12:02 21.14890 -87.06160 2047 ft 153 kts 111°
2026-05-08 12:02 21.14502 -87.05117 2044 ft 152 kts 111°
2026-05-08 12:02 21.14111 -87.04063 2044 ft 152 kts 111°
2026-05-08 12:03 21.13719 -87.03010 2042 ft 152 kts 111°
2026-05-08 12:03 21.13327 -87.01958 2042 ft 152 kts 111°
2026-05-08 12:03 21.12936 -87.00906 2045 ft 152 kts 111°
2026-05-08 12:03 21.12545 -86.99853 2043 ft 152 kts 111°
2026-05-08 12:04 21.12072 -86.98850 2061 ft 149 kts 120°
2026-05-08 12:04 21.11533 -86.97904 1935 ft 148 kts 122°
2026-05-08 12:04 21.10992 -86.97002 1864 ft 144 kts 123°
2026-05-08 12:04 21.10445 -86.96110 1745 ft 142 kts 123°
2026-05-08 12:05 21.09900 -86.95230 1590 ft 141 kts 123°
2026-05-08 12:05 21.09356 -86.94356 1418 ft 141 kts 123°
2026-05-08 12:05 21.08814 -86.93487 1244 ft 140 kts 123°
2026-05-08 12:05 21.08273 -86.92619 1052 ft 140 kts 124°
2026-05-08 12:06 21.07733 -86.91755 868 ft 139 kts 124°
2026-05-08 12:06 21.07195 -86.90894 680 ft 139 kts 124°
2026-05-08 12:06 21.06657 -86.90035 500 ft 139 kts 124°
2026-05-08 12:06 21.06127 -86.89191 319 ft 138 kts 124°
2026-05-08 12:07 21.05590 -86.88338 144 ft 137 kts 124°
2026-05-08 12:07 21.05097 -86.87553 34 ft 103 kts 123°
2026-05-08 12:07 21.04866 -86.87181 32 ft 18 kts 123°
2026-05-08 12:07 21.04758 -86.87008 31 ft 45 kts 123°
2026-05-08 12:08 21.04568 -86.86705 32 ft 49 kts 123°
2026-05-08 12:08 21.04401 -86.86461 30 ft 33 kts 136°
2026-05-08 12:08 21.04302 -86.86395 31 ft 0 kts 156°
2026-05-08 12:09 21.04298 -86.86393 31 ft 0 kts 156°
2026-05-08 12:09 21.04270 -86.86379 33 ft 15 kts 155°
2026-05-08 12:09 21.04166 -86.86326 40 ft 24 kts 153°
2026-05-08 12:10 21.04070 -86.86239 45 ft 18 kts 135°
2026-05-08 12:10 21.03975 -86.86259 49 ft 17 kts 217°
2026-05-08 12:10 21.03865 -86.86342 51 ft 28 kts 214°
2026-05-08 12:10 21.03734 -86.86432 41 ft 19 kts 214°
2026-05-08 12:11 21.03632 -86.86504 31 ft 20 kts 213°
2026-05-08 12:11 21.03570 -86.86583 29 ft 12 kts 268°
2026-05-08 12:11 21.03573 -86.86665 29 ft 1 kts 248°
2026-05-08 12:11 21.03565 -86.86682 29 ft 6 kts 236°
2026-05-08 12:12 21.03513 -86.86726 29 ft 10 kts 214°
2026-05-08 12:12 21.03448 -86.86772 29 ft 11 kts 212°
2026-05-08 12:12 21.03391 -86.86819 29 ft 10 kts 242°
2026-05-08 12:12 21.03424 -86.86893 29 ft 12 kts 311°
2026-05-08 12:13 21.03476 -86.86965 29 ft 14 kts 303°
2026-05-08 12:13 21.03535 -86.87060 30 ft 17 kts 304°
2026-05-08 12:13 21.03603 -86.87165 30 ft 17 kts 304°
2026-05-08 12:13 21.03674 -86.87280 30 ft 19 kts 303°
2026-05-08 12:14 21.03747 -86.87395 30 ft 20 kts 303°
2026-05-08 12:14 21.03816 -86.87506 30 ft 14 kts 302°
2026-05-08 12:14 21.03818 -86.87597 30 ft 13 kts 259°
2026-05-08 12:14 21.03846 -86.87690 31 ft 15 kts 303°
2026-05-08 12:15 21.03910 -86.87794 31 ft 18 kts 304°
2026-05-08 12:15 21.03988 -86.87916 30 ft 22 kts 304°
2026-05-08 12:15 21.04067 -86.88041 30 ft 19 kts 302°
2026-05-08 12:15 21.04144 -86.88170 30 ft 18 kts 304°
2026-05-08 12:16 21.04205 -86.88190 30 ft 8 kts 21°
2026-05-08 12:16 21.04263 -86.88152 29 ft 12 kts 33°
2026-05-08 12:16 21.04342 -86.88095 29 ft 16 kts 35°
2026-05-08 12:16 21.04439 -86.88026 29 ft 15 kts 32°
2026-05-08 12:17 21.04473 -86.87988 29 ft 0 kts 70°
2026-05-08 12:17 21.04461 -86.87943 29 ft 5 kts 121°
2026-05-08 12:17 21.04447 -86.87920 29 ft 1 kts 124°
2026-05-08 12:17 21.04442 -86.87913 29 ft 1 kts 124°
2026-05-08 12:18 21.04438 -86.87907 29 ft 2 kts 124°